Regional Weather Roundup
Issued by NWS Sterling, VA

Home | Current Version | Previous Version | Graphics & Text | Print | Product List | Glossary On
Versions: 1 2 3 4 5 6 7 8 9 10 11 12 13 14 15 16 17 18 19 20 21 22 23 24 25 26 27 28 29 30 31 32 33 34 35 36 37 38 39 40 41 42 43 44 45 46 47 48 49 50
497
ASUS41 KLWX 292210
RWRLWX

REGIONAL WEATHER ROUNDUP
NATIONAL WEATHER SERVICE BALTIMORE MD/WASHINGTON DC
600 PM EDT SUN MAY 29 2016

Note: "FAIR" indicates few or no clouds below 12,000 feet
with no significant weather and/or obstructions to visibility.
 TC=TEMPERATURE CELSIUS

 * =Non NWS site. Station does not report precipitation (e.g. rain,
    snow, etc.), thunder, or fog.

DCZ001-MDZ009-015-VAZ040>042-051-053>054-292300-
WASHINGTON METRO

CITY           SKY/WX    TMP DP  RH WIND       PRES   REMARKS
WASHINGTON NAT RAIN      73  71  93 SE9       30.08S FOG
DULLES         LGT RAIN  77  61  57 SE7       30.07S
ANDREWS AFB    RAIN      72  70  94 SW3       30.07  FOG
FT BELVOIR     LGT RAIN  73  70  91 SE2       30.07S
QUANTICO       LGT RAIN  73  69  87 SE8       30.08S
COLLEGE PARK*  CLOUDY    70  68  94 S5        30.08R VSB 1/2
LEESBURG*      LGT RAIN  81  70  69 S7        30.07F
MANASSAS*      PTSUNNY   75  70  83 SE9       30.06F

$$

MDZ006>007-011-014-292300-
BALTIMORE METRO

CITY           SKY/WX    TMP DP  RH WIND       PRES   REMARKS
BWI AIRPORT    LGT RAIN  74  70  87 S8        30.07R FOG
MD SCIENCE CTR   N/A     80  68  66 MISG      30.07R
ANNAPOLIS      LGT RAIN  75  71  87 S5        30.07R
FORT MEADE*    CLOUDY    72  70  94 S8        30.10R VSB 3/4

$$

MDZ012-015-019>023-292300-
MARYLAND EASTERN SHORE

CITY           SKY/WX    TMP DP  RH WIND       PRES   REMARKS
OCEAN CITY     CLOUDY    70  68  93 SE5       30.08F
SALISBURY      CLOUDY    77  72  84 S8        30.07S
BAY BRIDGE AP* LGT RAIN  75  73  94 S6        30.08R
CAMBRIDGE*     CLOUDY    75  70  83 S3        30.06F
EASTON*        CLOUDY    77  75  94 CALM      30.11S

$$

MDZ017>025-292300-
SOUTHERN MARYLAND

CITY           SKY/WX    TMP DP  RH WIND       PRES   REMARKS
PATUXENT RIVER CLOUDY    74  71  91 SE6       30.06F
ST INIGOES     PTSUNNY   77  73  87 SE5       30.05F
LEONARDTOWN*   CLOUDY    73  70  88 CALM      30.08F

$$

MDZ003>005-292300-
NORTH CENTRAL MARYLAND

CITY           SKY/WX    TMP DP  RH WIND       PRES   REMARKS
FREDERICK*     CLOUDY    77  68  73 SW6       30.09R
HAGERSTOWN APT CLOUDY    81  56  42 SW5       30.06F
WESTMINSTER*   LGT RAIN  81  75  83 S6        30.08S

$$

MDZ501>502-292300-
WESTERN MARYLAND

CITY           SKY/WX    TMP DP  RH WIND       PRES   REMARKS
OAKLAND*       CLOUDY    61  59  94 CALM      30.18F
CUMBERLAND*    CLOUDY    72  63  73 N6        30.12F

$$

VAZ025>031-292300-
SHENANDOAH VALLEY

CITY           SKY/WX    TMP DP  RH WIND       PRES   REMARKS
WINCHESTER*    PTSUNNY   79  64  61 CALM      30.07S
FRONT ROYAL*   CLOUDY    75  70  83 CALM      30.06S
LURAY*         LGT RAIN  73  66  78 SW6       30.09R
NEW MARKET*    CLOUDY    73  68  83 CALM      30.08R
STAUNTON*      LGT RAIN  65  63  91 S3        30.13F
WAYNESBORO*    CLOUDY    63  60  90 S3        30.13F

$$

WVZ021-048>050-054>055-292300-
EASTERN WEST VIRGINIA PANHANDLE

CITY           SKY/WX    TMP DP  RH WIND       PRES   REMARKS
MARTINSBURG    FAIR      78  66  66 CALM      30.05F
PETERSBURG*    CLOUDY    75  69  81 CALM      30.10S

$$

VAZ036>039-050-292300-
CENTRAL FOOTHILLS

CITY           SKY/WX    TMP DP  RH WIND       PRES   REMARKS
CHARLOTTESVILL LGT RAIN  74  63  68 CALM      30.07S
CULPEPER*      CLOUDY    78  69  73 CALM      30.07S
ORANGE*        CLOUDY    75  63  64 CALM      30.09S
GORDONSVILLE*  CLOUDY    76  68  77 CALM      30.06S
WARRENTON*     CLOUDY    76  61  59 SE5       30.06F

$$

VAZ055>057-292300-
NORTH AND CENTRAL PIEDMONT

CITY           SKY/WX    TMP DP  RH WIND       PRES   REMARKS
FREDERICKSBRG* DRIZZLE   71  71 100 E5        30.07S
STAFFORD*      DRIZZLE   71  69  94 E6        30.11S

$$

NCZ024-NYZ072-PAZ021-071-VAZ022-071-292300-
OTHER REGIONAL OBSERVATIONS

CITY           SKY/WX    TMP DP  RH WIND       PRES   REMARKS
NEW YORK CITY  SUNNY     76  64  66 S9G22     30.09F
PHILADELPHIA   CLOUDY    81  67  62 S13       30.07R
PITTSBURGH     CLOUDY    74  62  66 SE8       30.08F
ROANOKE        RAIN      65  60  84 E8        30.15R
RICHMOND       RAIN      71  70  96 N10       30.05S FOG
RALEIGH        LGT RAIN  70  66  88 NW5       30.03F

$$

ANZ530>537-292300-
MARINE OBSERVATIONS

STATION/POSITION TIME  TEMP    WIND        PRES
                       AIR SEA DIR/SP/G
                 (UTC) (F)     (DEG/KT/KT) (MB)
THOMAS PT LIGHT  2200   71 68  180/ 10/ 10 1019.6R
BALT KEY BRIDGE  2100   78     160/  8/ 10 1017.6F
COVE POINT       2100   71     190/  8/  9 1018.8F
LEWISETTA        2100   72 72  110/  8/  9 1017.6F
SOLOMONS ISLAND  2100   72 69  130/  5/  6   N/A
PINEY POINT      2100          140/  7/  7   N/A

$$





USA.gov is the U.S. government's official web portal to all federal, state and local government web resources and services.